Date String (YYYY-MM-DD hh:mm:ss) UTC,Instrument flags,absolute air pressure of the measurement (hPa),sample flow rate (lpm),inlet stack bypass flow (lpm),air temperature of the measurement (°C),ambient temperature measured by the external sensor (°C),aerosol sample conditioner tube jacket temperature (°C),OPC LED temperature (°C),internal box temperature (°C),relative humidity of the measurement (%),span deviation,mass concentration of particles derived from Lorenz-Mie calculation of OPC scattering (μg/m³),mass concentration of particles derived from Lorenz-Mie calculation of OPC scattering (μg/m³),mass concentration of particles derived from Lorenz-Mie calculation of OPC scattering (μg/m³)
DateTimeUTC,F1_M11,P_M11,Q1_M11,Q2_M11,T1_M11,T2_M11,T3_M11,T4_M11,T5_M11,U1_M11,ZSPAN_M11,X0_M11,X2_M11,X1_M11
2024-05-07 06:00:00,SystemResetWarning,0815.3,5.00,000.00,021.4,020.7,000.0,029.6,023.1,012.1,0000.0,0003.28,0001.37,0000.63
2024-05-07 06:01:00,SystemResetWarning,0815.1,5.01,000.00,021.4,020.7,000.0,029.5,023.0,011.6,0000.0,0003.98,0001.37,0000.63
2024-05-07 06:02:00,SystemResetWarning,0815.1,5.01,000.00,021.4,020.7,000.0,029.5,023.0,011.5,0000.0,0003.71,0001.39,0000.64
2024-05-07 06:03:00,SystemResetWarning,0815.2,5.00,000.00,021.4,020.7,000.0,029.6,023.0,012.0,0000.0,0003.90,0001.44,0000.64
2024-05-07 06:04:00,SystemResetWarning,0815.3,4.99,000.00,021.4,020.7,000.0,029.5,023.0,011.9,0000.0,0004.42,0001.37,0000.64
2024-05-07 06:05:00,SystemResetWarning,0815.3,4.99,000.00,021.4,020.7,000.0,029.6,023.0,011.8,0000.0,0004.30,0001.31,0000.65
2024-05-07 06:06:00,SystemResetWarning,0815.3,5.00,000.00,021.4,020.8,000.0,029.6,023.0,011.5,0000.0,0004.31,0001.32,0000.67
2024-05-07 06:07:00,SystemResetWarning,0815.2,5.00,000.00,021.4,020.8,000.0,029.6,023.1,011.4,0000.0,0004.32,0001.33,0000.68
2024-05-07 06:08:00,SystemResetWarning,0815.2,5.00,000.00,021.4,020.8,000.0,029.6,023.1,011.3,0000.0,0004.37,0001.33,0000.69
2024-05-07 06:09:00,SystemResetWarning,0815.6,5.00,000.00,021.4,020.8,000.0,029.6,023.1,011.4,0000.0,0004.70,0001.32,0000.70
2024-05-07 06:10:00,SystemResetWarning,0815.6,5.00,000.00,021.4,020.8,000.0,029.6,023.1,011.6,0000.0,0004.95,0001.35,0000.70
2024-05-07 06:11:00,SystemResetWarning,0815.0,5.00,000.00,021.4,020.8,000.0,029.6,023.1,011.6,0000.0,0004.94,0001.31,0000.69
2024-05-07 06:12:00,SystemResetWarning,0815.2,5.00,000.00,021.5,020.8,000.0,029.6,023.2,011.0,0000.0,0004.43,0001.32,0000.70
2024-05-07 06:13:00,SystemResetWarning,0815.3,4.99,000.00,021.5,020.8,000.0,029.6,023.2,011.1,0000.0,0004.20,0001.33,0000.71
2024-05-07 06:14:00,SystemResetWarning,0815.3,4.99,000.00,021.5,020.8,000.0,029.6,023.2,011.3,0000.0,0004.18,0001.36,0000.73
2024-05-07 06:15:00,SystemResetWarning,0815.3,5.00,000.00,021.5,020.8,000.0,029.6,023.2,011.4,0000.0,0003.70,0001.39,0000.74
2024-05-07 06:16:00,SystemResetWarning,0815.3,5.00,000.00,021.5,020.8,000.0,029.6,023.1,011.4,0000.0,0003.75,0001.47,0000.74
2024-05-07 06:17:00,SystemResetWarning,0815.3,5.00,000.00,021.5,020.8,000.0,029.6,023.1,011.5,0000.0,0003.94,0001.52,0000.74
2024-05-07 06:18:00,SystemResetWarning,0815.3,5.00,000.00,021.5,020.8,000.0,029.6,023.1,011.6,0000.0,0004.13,0001.56,0000.74
2024-05-07 06:19:00,SystemResetWarning,0815.2,5.00,000.00,021.5,020.8,000.0,029.6,023.1,011.6,0000.0,0004.64,0001.59,0000.74
2024-05-07 06:20:00,SystemResetWarning,0815.1,5.00,000.00,021.5,020.8,000.0,029.6,023.1,011.2,0000.0,0004.84,0001.65,0000.75
2024-05-07 06:21:00,SystemResetWarning,0815.2,5.00,000.00,021.5,020.8,000.0,029.6,023.1,011.2,0000.0,0005.12,0001.60,0000.75
2024-05-07 06:22:00,SystemResetWarning,0815.3,5.01,000.00,021.5,020.8,000.0,029.6,023.1,011.2,0000.0,0005.85,0001.63,0000.77
2024-05-07 06:23:00,SystemResetWarning,0815.3,5.01,000.00,021.5,020.8,000.0,029.6,023.0,011.2,0000.0,0006.73,0001.71,0000.79
2024-05-07 06:24:00,SystemResetWarning,0815.0,5.00,000.00,021.5,020.8,000.0,029.6,023.1,011.1,0000.0,0006.83,0001.72,0000.79
2024-05-07 06:25:00,SystemResetWarning,0815.0,4.99,000.00,021.5,020.8,000.0,029.6,023.1,010.8,0000.0,0007.06,0001.71,0000.80
2024-05-07 06:26:00,SystemResetWarning,0815.0,4.99,000.00,021.5,020.8,000.0,029.6,023.1,010.9,0000.0,0007.08,0001.72,0000.81
2024-05-07 06:27:00,SystemResetWarning,0815.2,5.00,000.00,021.5,020.8,000.0,029.6,023.1,011.2,0000.0,0007.01,0001.72,0000.82
2024-05-07 06:28:00,SystemResetWarning,0815.3,5.01,000.00,021.4,020.7,000.0,029.6,023.1,011.3,0000.0,0007.46,0001.72,0000.82
2024-05-07 06:29:00,SystemResetWarning,0815.3,5.00,000.00,021.4,020.7,000.0,029.6,023.0,011.4,0000.0,0007.59,0001.72,0000.82
2024-05-07 06:30:00,SystemResetWarning,0815.2,4.99,000.00,021.4,020.7,000.0,029.6,023.1,011.6,0000.0,0008.23,0001.71,0000.82
2024-05-07 06:31:00,SystemResetWarning,0815.2,5.00,000.00,021.4,020.7,000.0,029.6,023.1,011.6,0000.0,0008.06,0001.66,0000.83
2024-05-07 06:32:00,SystemResetWarning,0815.3,5.01,000.00,021.4,020.7,000.0,029.6,023.1,011.4,0000.0,0007.90,0001.69,0000.83
2024-05-07 06:33:00,SystemResetWarning,0815.5,5.01,000.00,021.4,020.7,000.0,029.6,023.1,011.6,0000.0,0007.48,0001.72,0000.83
2024-05-07 06:34:00,SystemResetWarning,0815.4,5.00,000.00,021.4,020.7,000.0,029.6,023.0,011.7,0000.0,0006.98,0001.70,0000.82
2024-05-07 06:35:00,SystemResetWarning,0815.4,4.99,000.00,021.4,020.6,000.0,029.6,023.0,011.7,0000.0,0006.67,0001.67,0000.80
2024-05-07 06:36:00,SystemResetWarning,0815.4,4.99,000.00,021.4,020.7,000.0,029.6,023.0,011.8,0000.0,0006.63,0001.65,0000.79
2024-05-07 06:37:00,SystemResetWarning,0815.6,4.99,000.00,021.4,020.7,000.0,029.6,023.0,011.6,0000.0,0007.37,0001.61,0000.77
2024-05-07 06:38:00,SystemResetWarning,0815.6,5.00,000.00,021.4,020.7,000.0,029.6,023.0,011.5,0000.0,0007.46,0001.63,0000.76
2024-05-07 06:39:00,SystemResetWarning,0815.6,5.00,000.00,021.4,020.7,000.0,029.6,023.0,011.5,0000.0,0008.11,0001.67,0000.76
2024-05-07 06:40:00,SystemResetWarning,0815.5,5.00,000.00,021.4,020.7,000.0,029.6,023.0,011.5,0000.0,0008.15,0001.72,0000.77
2024-05-07 06:41:00,SystemResetWarning,0815.4,5.01,000.00,021.4,020.7,000.0,029.6,023.0,011.2,0000.0,0007.97,0001.73,0000.78
2024-05-07 06:42:00,SystemResetWarning,0815.5,5.01,000.00,021.4,020.7,000.0,029.6,023.0,011.1,0000.0,0007.41,0001.75,0000.78
2024-05-07 06:43:00,SystemResetWarning,0815.6,5.00,000.00,021.4,020.7,000.0,029.6,023.0,011.3,0000.0,0007.38,0001.76,0000.79
2024-05-07 06:44:00,SystemResetWarning,0815.7,5.00,000.00,021.4,020.7,000.0,029.6,023.0,011.4,0000.0,0007.31,0001.80,0000.80
2024-05-07 06:45:00,SystemResetWarning,0815.4,5.00,000.00,021.4,020.7,000.0,029.5,023.0,011.0,0000.0,0007.31,0001.79,0000.80
2024-05-07 06:46:00,SystemResetWarning,0815.6,5.00,000.00,021.4,020.7,000.0,029.5,023.0,010.7,0000.0,0007.38,0001.80,0000.82
2024-05-07 06:47:00,SystemResetWarning,0815.6,5.00,000.00,021.4,020.7,000.0,029.5,023.0,010.9,0000.0,0008.21,0001.83,0000.85
2024-05-07 06:48:00,SystemResetWarning,0815.7,5.01,000.00,021.4,020.7,000.0,029.5,023.0,010.9,0000.0,0007.83,0001.89,0000.86
2024-05-07 06:49:00,SystemResetWarning,0815.7,5.00,000.00,021.4,020.7,000.0,029.5,023.0,011.2,0000.0,0007.79,0001.85,0000.87
2024-05-07 06:50:00,SystemResetWarning,0815.6,5.00,000.00,021.4,020.7,000.0,029.5,023.0,011.1,0000.0,0006.98,0001.79,0000.87
2024-05-07 06:51:00,SystemResetWarning,0815.6,5.00,000.00,021.4,020.7,000.0,029.5,023.0,011.0,0000.0,0006.09,0001.77,0000.87
2024-05-07 06:52:00,SystemResetWarning,0815.6,5.00,000.00,021.4,020.7,000.0,029.5,023.0,011.0,0000.0,0005.68,0001.77,0000.87
2024-05-07 06:53:00,SystemResetWarning,0815.4,5.00,000.00,021.4,020.7,000.0,029.5,022.9,011.0,0000.0,0005.65,0001.79,0000.88
2024-05-07 06:54:00,SystemResetWarning,0815.2,5.00,000.00,021.4,020.7,000.0,029.5,023.0,011.0,0000.0,0005.78,0001.83,0000.88
2024-05-07 06:55:00,SystemResetWarning,0815.2,5.00,000.00,021.4,020.7,000.0,029.5,023.0,010.7,0000.0,0005.70,0001.77,0000.87
2024-05-07 06:56:00,SystemResetWarning,0815.6,5.00,000.00,021.4,020.7,000.0,029.5,023.0,010.9,0000.0,0005.67,0001.78,0000.88
2024-05-07 06:57:00,SystemResetWarning,0815.6,5.00,000.00,021.4,020.7,000.0,029.5,023.0,010.9,0000.0,0005.73,0001.79,0000.88
2024-05-07 06:58:00,SystemResetWarning,0815.6,5.00,000.00,021.4,020.7,000.0,029.6,023.0,010.6,0000.0,0004.42,0001.78,0000.87
2024-05-07 06:59:00,SystemResetWarning,0815.6,5.00,000.00,021.4,020.7,000.0,029.6,023.0,010.6,0000.0,0004.18,0001.78,0000.88
